Regional Weather Roundup
Issued by NWS Charleston, WV

Home | Current Version | Previous Version | Text Only | Print | Product List | Glossary On
Versions: 1 2 3 4 5 6 7 8 9 10 11 12 13 14 15 16 17 18 19 20 21 22 23 24 25 26 27
000
ASUS41 KRLX 311010
RWRRLX
West Virginia Regional Weather Roundup
National Weather Service Charleston WV
600 AM EDT TUE MAY 31 2016

Note: "fair" indicates few or no clouds below 12,000 feet with no
significant weather and/or obstructions to visibility.

WVZ003-311100-
Northern Panhandle of West Virginia

CITY           SKY/WX    TMP DP  RH WIND       PRES   REMARKS
WHEELING         N/A     60  56  86 CALM      30.01R
$$

WVZ009-311100-
Northwest West Virginia

CITY           SKY/WX    TMP DP  RH WIND       PRES   REMARKS
PARKERSBURG    FOG       57  56  96 CALM      30.03R VSB 1
$$

WVZ006-311100-
Western West Virginia

CITY           SKY/WX    TMP DP  RH WIND       PRES   REMARKS
HUNTINGTON       N/A     60  58  92 CALM      29.99R
$$

WVZ015-311100-
West Central West Virginia

CITY           SKY/WX    TMP DP  RH WIND       PRES   REMARKS
CHARLESTON     FOG       60  58  92 CALM      30.00S VSB 1/2
$$

WVZ022-031-311100-
North Central West Virginia

CITY           SKY/WX    TMP DP  RH WIND       PRES   REMARKS
CLARKSBURG     FOG       61  60  97 CALM      30.01R VSB 1/4
MORGANTOWN       N/A     58  54  86 CALM      30.02R
$$

WVZ025-035-042-045-311100-
Southern West Virginia

CITY           SKY/WX    TMP DP  RH WIND       PRES   REMARKS
BECKLEY          N/A     57  56  96 CALM      30.05S
LOGAN            N/A     64  63  94 CALM      30.01S
BLUEFIELD      CLOUDY    61  57  87 CALM      30.07S
LEWISBURG      FOG       59  58  99 CALM      30.05S VSB 1/4
$$

WVZ047-311100-
Northern Mountains of West Virginia

CITY           SKY/WX    TMP DP  RH WIND       PRES   REMARKS
ELKINS         FOG       56  55  97 CALM      30.06R VSB 1/2
$$

WVZ052-311100-
Eastern Panhandle of West Virginia

CITY           SKY/WX    TMP DP  RH WIND       PRES   REMARKS
MARTINSBURG    MOCLDY    61  61 100 CALM      29.97R FOG
PETERSBURG     FOG       61  61 100 CALM      30.02S VSB 1/4
$$




USA.gov is the U.S. government's official web portal to all federal, state and local government web resources and services.